When you browse on this site, cookies collect data to enhance your experience and personalize the content and advertising you see.
Visit our Privacy Policy to learn more. By continuing to use the site, you agree to this use of cookies and data.

Hourly Weather Starye Gorki 1

Today, 2 July, Thursday

Time Temperature Precipitation Wind Pressure Humidity
00:00 +16°C° 0 mm 2 mps 737 mmHg 90%
01:00 +16°C° 0 mm 2 mps 737 mmHg 92%
02:00 +14°C° 0 mm 3 mps 737 mmHg 93%
03:00 +16°C° 0 mm 2 mps 737 mmHg 92%
04:00 +16°C° 0 mm 2 mps 737 mmHg 92%
05:00 +16°C° 0 mm 2 mps 737 mmHg 91%
06:00 +18°C° 0 mm 2 mps 738 mmHg 86%
07:00 +19°C° 0 mm 2 mps 738 mmHg 81%
08:00 +21°C° 0 mm 2 mps 738 mmHg 75%
09:00 +23°C° 0 mm 2 mps 738 mmHg 72%
10:00 +24°C° 0 mm 3 mps 738 mmHg 69%
11:00 +25°C° 0 mm 3 mps 738 mmHg 67%
12:00 +25°C° 0.2 mm 3 mps 738 mmHg 67%
13:00 +26°C° 0.2 mm 3 mps 738 mmHg 67%
14:00 +26°C° 0.2 mm 4 mps 738 mmHg 68%
15:00 +26°C° 0.3 mm 3 mps 738 mmHg 71%
16:00 +26°C° 0.3 mm 3 mps 738 mmHg 75%
17:00 +25°C° 0.3 mm 3 mps 738 mmHg 78%
18:00 +24°C° 0.2 mm 3 mps 738 mmHg 82%
19:00 +22°C° 0.2 mm 3 mps 738 mmHg 85%
20:00 +20°C° 0.2 mm 2 mps 738 mmHg 89%
21:00 +20°C° 0.1 mm 2 mps 738 mmHg 91%
22:00 +19°C° 0.1 mm 3 mps 738 mmHg 92%
23:00 +19°C° 0.1 mm 3 mps 738 mmHg 94%

Tomorrow, 3 July, Friday

Time Temperature Precipitation Wind Pressure Humidity
00:00 +18°C° 0 mm 3 mps 738 mmHg 94%
01:00 +18°C° 0 mm 3 mps 738 mmHg 95%
02:00 +18°C° 0 mm 2 mps 738 mmHg 95%
03:00 +18°C° 0 mm 2 mps 738 mmHg 95%
04:00 +19°C° 0 mm 3 mps 738 mmHg 95%
05:00 +19°C° 0 mm 3 mps 738 mmHg 95%
06:00 +20°C° 0 mm 3 mps 738 mmHg 92%
07:00 +22°C° 0 mm 3 mps 739 mmHg 89%
08:00 +24°C° 0 mm 3 mps 739 mmHg 85%
09:00 +25°C° 0.3 mm 3 mps 739 mmHg 82%
10:00 +26°C° 0.3 mm 4 mps 739 mmHg 79%
11:00 +27°C° 0.3 mm 4 mps 739 mmHg 76%
12:00 +27°C° 0.5 mm 4 mps 739 mmHg 75%
13:00 +27°C° 0.5 mm 4 mps 739 mmHg 74%
14:00 +27°C° 0.5 mm 4 mps 739 mmHg 74%
15:00 +27°C° 0.6 mm 3 mps 739 mmHg 76%
16:00 +27°C° 0.6 mm 3 mps 738 mmHg 79%
17:00 +27°C° 0.6 mm 2 mps 738 mmHg 81%
18:00 +25°C° 0.1 mm 2 mps 738 mmHg 84%
19:00 +24°C° 0.1 mm 2 mps 738 mmHg 87%
20:00 +23°C° 0.1 mm 2 mps 738 mmHg 89%
21:00 +21°C° 0.2 mm 3 mps 738 mmHg 90%
22:00 +21°C° 0.2 mm 3 mps 738 mmHg 90%
23:00 +20°C° 0.2 mm 3 mps 738 mmHg 91%

Day after tomorrow, 4 July, Saturday

Time Temperature Precipitation Wind Pressure Humidity
00:00 +20°C° 0 mm 3 mps 738 mmHg 91%
01:00 +19°C° 0 mm 3 mps 738 mmHg 91%
02:00 +19°C° 0 mm 3 mps 738 mmHg 92%
03:00 +19°C° 0 mm 3 mps 738 mmHg 92%
04:00 +19°C° 0 mm 3 mps 738 mmHg 92%
05:00 +20°C° 0 mm 3 mps 738 mmHg 92%
06:00 +21°C° 0 mm 3 mps 738 mmHg 89%
07:00 +24°C° 0 mm 3 mps 738 mmHg 85%
08:00 +25°C° 0 mm 3 mps 738 mmHg 81%
09:00 +26°C° 0 mm 3 mps 738 mmHg 77%
10:00 +27°C° 0 mm 3 mps 738 mmHg 72%
11:00 +28°C° 0 mm 4 mps 738 mmHg 68%
12:00 +28°C° 0.2 mm 4 mps 738 mmHg 68%
13:00 +28°C° 0.2 mm 4 mps 738 mmHg 69%
14:00 +28°C° 0.2 mm 4 mps 737 mmHg 69%
15:00 +28°C° 0.4 mm 3 mps 737 mmHg 72%
16:00 +27°C° 0.4 mm 3 mps 737 mmHg 76%
17:00 +27°C° 0.4 mm 2 mps 737 mmHg 79%
18:00 +25°C° 0.1 mm 2 mps 738 mmHg 82%
19:00 +24°C° 0.1 mm 2 mps 738 mmHg 86%
20:00 +23°C° 0.1 mm 2 mps 738 mmHg 89%
21:00 +21°C° 0 mm 2 mps 738 mmHg 91%
22:00 +21°C° 0 mm 2 mps 738 mmHg 92%
23:00 +20°C° 0 mm 2 mps 738 mmHg 94%

5 July, Sunday

Time Temperature Precipitation Wind Pressure Humidity
00:00 +20°C° 0 mm 2 mps 738 mmHg 94%
01:00 +19°C° 0 mm 2 mps 738 mmHg 95%
02:00 +20°C° 0 mm 1 mps 738 mmHg 95%
03:00 +19°C° 0 mm 2 mps 738 mmHg 95%
04:00 +19°C° 0 mm 2 mps 739 mmHg 94%
05:00 +19°C° 0 mm 2 mps 739 mmHg 94%
06:00 +20°C° 0 mm 2 mps 739 mmHg 90%
07:00 +21°C° 0 mm 2 mps 739 mmHg 86%
08:00 +23°C° 0 mm 2 mps 739 mmHg 82%
09:00 +24°C° 0.1 mm 2 mps 739 mmHg 78%
10:00 +25°C° 0.1 mm 2 mps 739 mmHg 75%
11:00 +26°C° 0.1 mm 2 mps 739 mmHg 71%
12:00 +26°C° 0.4 mm 2 mps 739 mmHg 71%
13:00 +26°C° 0.4 mm 2 mps 739 mmHg 70%
14:00 +27°C° 0.4 mm 2 mps 739 mmHg 70%
15:00 +26°C° 0.7 mm 2 mps 739 mmHg 72%
16:00 +26°C° 0.7 mm 1 mps 738 mmHg 73%
17:00 +26°C° 0.7 mm 1 mps 738 mmHg 75%
18:00 +25°C° 0.2 mm 1 mps 738 mmHg 78%
19:00 +23°C° 0.2 mm 1 mps 738 mmHg 81%
20:00 +22°C° 0.2 mm 1 mps 738 mmHg 84%
21:00 +22°C° 0 mm 1 mps 738 mmHg 85%
22:00 +21°C° 0 mm 1 mps 738 mmHg 86%
23:00 +20°C° 0 mm 1 mps 738 mmHg 87%

6 July, Monday

Time Temperature Precipitation Wind Pressure Humidity
00:00 +20°C° 0 mm 1 mps 738 mmHg 88%
01:00 +20°C° 0 mm 1 mps 738 mmHg 88%
02:00 +19°C° 0 mm 1 mps 738 mmHg 89%
03:00 +20°C° 0 mm 1 mps 738 mmHg 88%
04:00 +20°C° 0 mm 1 mps 738 mmHg 88%
05:00 +21°C° 0 mm 1 mps 738 mmHg 88%
06:00 +22°C° 0 mm 1 mps 739 mmHg 83%
07:00 +23°C° 0 mm 1 mps 739 mmHg 79%
08:00 +25°C° 0 mm 1 mps 739 mmHg 75%
09:00 +26°C° 0 mm 1 mps 739 mmHg 71%
10:00 +27°C° 0 mm 1 mps 739 mmHg 67%
11:00 +26°C° 0 mm 0 mps 739 mmHg 63%
12:00 +28°C° 0 mm 1 mps 739 mmHg 63%
13:00 +28°C° 0 mm 1 mps 738 mmHg 62%
14:00 +28°C° 0 mm 1 mps 738 mmHg 61%
15:00 +28°C° 0 mm 1 mps 738 mmHg 64%
16:00 +28°C° 0 mm 1 mps 738 mmHg 66%
17:00 +28°C° 0 mm 1 mps 738 mmHg 69%
18:00 +26°C° 0 mm 1 mps 738 mmHg 72%
19:00 +25°C° 0 mm 1 mps 738 mmHg 76%
20:00 +23°C° 0 mm 1 mps 738 mmHg 79%
21:00 +22°C° 0 mm 1 mps 738 mmHg 80%
22:00 +21°C° 0 mm 1 mps 738 mmHg 80%
23:00 +21°C° 0 mm 1 mps 738 mmHg 81%

7 July, Tuesday

Time Temperature Precipitation Wind Pressure Humidity
00:00 +20°C° 0 mm 1 mps 738 mmHg 82%
01:00 +18°C° 0 mm 0 mps 738 mmHg 83%
02:00 +18°C° 0 mm 0 mps 738 mmHg 83%
03:00 +20°C° 0 mm 1 mps 738 mmHg 84%
04:00 +21°C° 0 mm 1 mps 738 mmHg 85%
05:00 +21°C° 0 mm 1 mps 738 mmHg 85%
06:00 +23°C° 0 mm 2 mps 738 mmHg 84%
07:00 +25°C° 0 mm 2 mps 738 mmHg 82%
08:00 +26°C° 0 mm 3 mps 738 mmHg 80%
09:00 +28°C° 0.5 mm 3 mps 738 mmHg 77%
10:00 +29°C° 0.5 mm 4 mps 738 mmHg 73%
11:00 +30°C° 0.5 mm 4 mps 738 mmHg 70%
12:00 +30°C° 0.2 mm 4 mps 738 mmHg 68%
13:00 +32°C° 0.2 mm 4 mps 737 mmHg 66%
14:00 +32°C° 0.2 mm 4 mps 737 mmHg 65%
15:00 +32°C° 0 mm 4 mps 737 mmHg 69%
16:00 +30°C° 0 mm 4 mps 736 mmHg 72%
17:00 +29°C° 0 mm 3 mps 736 mmHg 76%
18:00 +28°C° 0 mm 3 mps 736 mmHg 79%
19:00 +27°C° 0 mm 3 mps 736 mmHg 81%
20:00 +25°C° 0 mm 3 mps 736 mmHg 83%
21:00 +25°C° 0 mm 3 mps 736 mmHg 82%
22:00 +24°C° 0 mm 3 mps 735 mmHg 80%
23:00 +24°C° 0 mm 3 mps 735 mmHg 79%
Show more